Location: Bennemühlen
(52.5740°N, 9.7135°E)
Time: 07:47:10
(UTC+00:00)

ISS - Pass Details

Date: 21 January 2026
Orbit: 413 x 429 km, 51.6° (Epoch: 11 February)

Event Time Altitude Azimuth Distance (km) Brightness Sun altitude
Rises 19:12:37 0° 280° (W) 2,372 1.2 -30.7°
Reaches altitude 10° 19:14:46 10° 274° (W) 1,509 -0.1 -31.0°
Enters shadow 19:15:13 13° 272° (W) 1,336 -0.4 -31.1°
